Flag for Germany Weather past 2 weeks in Wittenberg, Saxony-Anhalt, Germany

41 °F

Partly sunny.

Feels Like: 34 °F
Forecast: 42 / 51 °F
Wind: 12 mph from West

Location: Holzdorf

Current Time: Dec 1, 2015 at 9:26:47 AM

Latest Report: Dec 1, 2015 at 8:20 AM

Visibility: N/A

Pressure: 30.07 "Hg

Humidity: 87%

Dew point: 37 °F

Location of WittenbergLocation

Historic Weather in Wittenberg — Graph


Wittenberg temperature yesterday

Maximum temperature yesterday: 48 °F (at 12:02 AM)
Minimum temperature yesterday: 39 °F (at 5:00 PM)
Average temperature yesterday: 44 °F

Past Weeks' High & Low Weather Summary

High59 °F (Nov 18, 3:20 AM)100% (Nov 21, 6:20 PM)30.24 "Hg (Nov 21, 6:20 PM)
Low27 °F (Nov 24, 1:20 AM)55% (Nov 19, 1:20 PM)29.36 "Hg (Nov 21, 1:20 PM)
Average41 °F85%29.81 "Hg
* Reported Nov 16 7:20 AM — Dec 1 7:20 AM, Wittenberg, Weather by CustomWeather, © 2015

Note: Actual official high and low records may vary slightly from our data, if they occured in-between our weather recording intervals... More about our weather records


Wittenberg weather history for previous 24 hours

Time TempWeatherWind HumidityBarometerVisibility
7:20 AM
Tue, Dec 1
43 °FPassing clouds.10 mph81%30.04 "HgN/A
6:20 AM41 °FPassing clouds.10 mph87%30.01 "HgN/A
5:20 AM43 °FPartly cloudy.10 mph81%29.95 "HgN/A
4:20 AM43 °FPassing clouds.10 mph87%29.89 "HgN/A
4:00 AM43 °FPassing clouds.14 mph87%29.89 "HgN/A
3:20 AM46 °FPartly cloudy.15 mph87%29.83 "HgN/A
2:20 AM50 °FLight rain. Partly cloudy.20 mph94%29.74 "HgN/A
1:20 AM50 °FLight rain. Partly cloudy.25 mph88%29.68 "HgN/A
12:20 AM48 °FLight rain. Passing clouds.22 mph94%29.68 "HgN/A
11:20 PM
Mon, Nov 30
48 °FLight rain. Passing clouds.20 mph94%29.68 "HgN/A
10:20 PM48 °FLight rain. Partly cloudy.17 mph94%29.71 "Hg6 mi
9:20 PM45 °FRain. Partly cloudy.12 mph100%29.74 "Hg4 mi
8:20 PM41 °FRain. Passing clouds.5 mph100%29.77 "Hg5 mi
7:20 PM39 °FRain. Partly cloudy.7 mph93%29.80 "Hg5 mi
6:20 PM39 °FRain. Partly cloudy.3 mph93%29.86 "Hg5 mi
5:20 PM39 °FRain. Passing clouds.9 mph87%29.89 "Hg5 mi
5:00 PM39 °FLight rain. Passing clouds.10 mph87%29.92 "Hg5 mi
4:20 PM43 °FLight rain. Partly cloudy.21 mph66%29.92 "Hg5 mi
3:20 PM45 °FMore clouds than sun.14 mph66%29.95 "HgN/A
2:20 PM45 °FMore clouds than sun.13 mph61%29.95 "HgN/A
1:20 PM45 °FPartly sunny.17 mph66%29.98 "HgN/A
12:20 PM45 °FScattered clouds.16 mph61%29.98 "HgN/A
11:20 AM46 °FScattered clouds.20 mph57%29.95 "HgN/A
10:20 AM45 °FScattered clouds.16 mph66%29.95 "HgN/A
9:20 AM43 °FScattered clouds.15 mph71%29.92 "HgN/A
Weather by CustomWeather, © 2015

See weather overviewHow to use our weather pages